When you browse on this site, cookies collect data to enhance your experience and personalize the content and advertising you see.
Visit our Privacy Policy to learn more. By continuing to use the site, you agree to this use of cookies and data.
  • In Hungary
  • List of Countries
  • For 7 days
  • Water Temperature
  • Weather Map
  • News
  • Weather Widgets
  • user-avatar
    Login

    Hourly Weather Gorzyslaw

    Today, 23 September, Monday

    Time Temperature Precipitation Wind Pressure Humidity
    00:00 +11°C° 0 mm 4 mps 755 mmHg 95%
    01:00 +12°C° 0 mm 4 mps 756 mmHg 96%
    02:00 +12°C° 0 mm 5 mps 755 mmHg 93%
    03:00 +12°C° 0 mm 5 mps 755 mmHg 89%
    04:00 +11°C° 0 mm 6 mps 755 mmHg 86%
    05:00 +11°C° 0 mm 6 mps 755 mmHg 85%
    06:00 +10°C° 0 mm 6 mps 756 mmHg 84%
    07:00 +10°C° 0 mm 6 mps 756 mmHg 81%
    08:00 +12°C° 0 mm 5 mps 756 mmHg 77%
    09:00 +13°C° 0 mm 5 mps 757 mmHg 74%
    10:00 +14°C° 0 mm 5 mps 757 mmHg 70%
    11:00 +15°C° 0 mm 5 mps 757 mmHg 67%
    12:00 +16°C° 0 mm 5 mps 757 mmHg 65%
    13:00 +17°C° 0 mm 4 mps 757 mmHg 63%
    14:00 +17°C° 0 mm 4 mps 757 mmHg 63%
    15:00 +15°C° 0 mm 5 mps 756 mmHg 64%
    16:00 +15°C° 0 mm 5 mps 756 mmHg 65%
    17:00 +14°C° 0 mm 5 mps 756 mmHg 69%
    18:00 +12°C° 0 mm 4 mps 756 mmHg 74%
    19:00 +11°C° 0 mm 4 mps 756 mmHg 78%
    20:00 +11°C° 0 mm 4 mps 756 mmHg 80%
    21:00 +10°C° 0 mm 4 mps 756 mmHg 81%
    22:00 +10°C° 0 mm 4 mps 756 mmHg 82%
    23:00 +9°C° 0 mm 3 mps 756 mmHg 84%

    Tomorrow, 24 September, Tuesday

    Time Temperature Precipitation Wind Pressure Humidity
    00:00 +9°C° 0 mm 3 mps 756 mmHg 86%
    01:00 +9°C° 0 mm 3 mps 756 mmHg 88%
    02:00 +9°C° 0 mm 3 mps 755 mmHg 88%
    03:00 +9°C° 0 mm 3 mps 755 mmHg 89%
    04:00 +8°C° 0 mm 3 mps 755 mmHg 89%
    05:00 +9°C° 0 mm 3 mps 755 mmHg 87%
    06:00 +9°C° 0 mm 3 mps 754 mmHg 85%
    07:00 +10°C° 0 mm 3 mps 754 mmHg 83%
    08:00 +11°C° 0 mm 3 mps 754 mmHg 77%
    09:00 +13°C° 0 mm 3 mps 754 mmHg 70%
    10:00 +16°C° 0 mm 3 mps 754 mmHg 64%
    11:00 +17°C° 0 mm 3 mps 754 mmHg 61%
    12:00 +19°C° 0 mm 3 mps 754 mmHg 58%
    13:00 +20°C° 0 mm 3 mps 753 mmHg 55%
    14:00 +20°C° 0 mm 3 mps 753 mmHg 56%
    15:00 +19°C° 0 mm 3 mps 752 mmHg 57%
    16:00 +19°C° 0 mm 3 mps 752 mmHg 58%
    17:00 +18°C° 0 mm 3 mps 752 mmHg 62%
    18:00 +17°C° 0 mm 3 mps 751 mmHg 66%
    19:00 +16°C° 0 mm 3 mps 751 mmHg 70%
    20:00 +14°C° 0.1 mm 4 mps 751 mmHg 72%
    21:00 +14°C° 0.1 mm 4 mps 751 mmHg 74%
    22:00 +14°C° 0.1 mm 4 mps 751 mmHg 76%
    23:00 +14°C° 0.6 mm 4 mps 751 mmHg 78%

    Day after tomorrow, 25 September, Wednesday

    Time Temperature Precipitation Wind Pressure Humidity
    00:00 +13°C° 0.6 mm 4 mps 750 mmHg 80%
    01:00 +13°C° 0.6 mm 4 mps 750 mmHg 82%
    02:00 +13°C° 0.3 mm 4 mps 750 mmHg 82%
    03:00 +12°C° 0.3 mm 4 mps 749 mmHg 82%
    04:00 +12°C° 0.3 mm 3 mps 749 mmHg 82%
    05:00 +12°C° 0.2 mm 3 mps 749 mmHg 82%
    06:00 +12°C° 0.2 mm 3 mps 749 mmHg 81%
    07:00 +12°C° 0.2 mm 3 mps 748 mmHg 81%
    08:00 +12°C° 0 mm 3 mps 749 mmHg 81%
    09:00 +13°C° 0 mm 3 mps 749 mmHg 80%
    10:00 +13°C° 0 mm 4 mps 749 mmHg 80%
    11:00 +13°C° 0.1 mm 3 mps 749 mmHg 81%
    12:00 +13°C° 0.1 mm 3 mps 749 mmHg 83%
    13:00 +13°C° 0.1 mm 3 mps 749 mmHg 84%
    14:00 +13°C° 0.1 mm 3 mps 748 mmHg 85%
    15:00 +13°C° 0.1 mm 3 mps 748 mmHg 85%
    16:00 +13°C° 0.1 mm 3 mps 748 mmHg 85%
    17:00 +13°C° 0.1 mm 3 mps 748 mmHg 87%
    18:00 +12°C° 0.1 mm 3 mps 749 mmHg 88%
    19:00 +12°C° 0.1 mm 3 mps 749 mmHg 89%
    20:00 +12°C° 0.2 mm 3 mps 749 mmHg 90%
    21:00 +13°C° 0.2 mm 3 mps 749 mmHg 90%
    22:00 +13°C° 0.2 mm 3 mps 749 mmHg 90%
    23:00 +13°C° 0.2 mm 3 mps 749 mmHg 91%

    26 September, Thursday

    Time Temperature Precipitation Wind Pressure Humidity
    00:00 +12°C° 0.2 mm 3 mps 749 mmHg 92%
    01:00 +13°C° 0.2 mm 2 mps 749 mmHg 93%
    02:00 +13°C° 0.2 mm 2 mps 749 mmHg 94%
    03:00 +13°C° 0.2 mm 2 mps 749 mmHg 94%
    04:00 +13°C° 0.2 mm 2 mps 749 mmHg 95%
    05:00 +13°C° 0.1 mm 2 mps 750 mmHg 94%
    06:00 +13°C° 0.1 mm 2 mps 750 mmHg 93%
    07:00 +13°C° 0.1 mm 2 mps 750 mmHg 92%
    08:00 +14°C° 0 mm 2 mps 750 mmHg 89%
    09:00 +15°C° 0 mm 2 mps 751 mmHg 87%
    10:00 +16°C° 0 mm 2 mps 752 mmHg 84%
    11:00 +16°C° 0.1 mm 2 mps 752 mmHg 81%
    12:00 +17°C° 0.1 mm 2 mps 752 mmHg 78%
    13:00 +17°C° 0.1 mm 2 mps 752 mmHg 75%
    14:00 +17°C° 0.1 mm 2 mps 752 mmHg 76%
    15:00 +17°C° 0.1 mm 2 mps 752 mmHg 77%
    16:00 +17°C° 0.1 mm 2 mps 752 mmHg 78%
    17:00 +16°C° 0 mm 2 mps 752 mmHg 82%
    18:00 +14°C° 0 mm 3 mps 752 mmHg 86%
    19:00 +13°C° 0 mm 3 mps 752 mmHg 90%
    20:00 +12°C° 0 mm 3 mps 753 mmHg 90%
    21:00 +12°C° 0 mm 3 mps 753 mmHg 90%
    22:00 +12°C° 0 mm 3 mps 753 mmHg 90%
    23:00 +11°C° 0 mm 3 mps 753 mmHg 91%

    27 September, Friday

    Time Temperature Precipitation Wind Pressure Humidity
    00:00 +11°C° 0 mm 3 mps 753 mmHg 92%
    01:00 +11°C° 0 mm 3 mps 753 mmHg 93%
    02:00 +11°C° 0 mm 3 mps 753 mmHg 94%
    03:00 +11°C° 0 mm 3 mps 753 mmHg 94%
    04:00 +11°C° 0 mm 3 mps 752 mmHg 95%
    05:00 +11°C° 0 mm 3 mps 752 mmHg 94%
    06:00 +12°C° 0 mm 3 mps 752 mmHg 93%
    07:00 +12°C° 0 mm 4 mps 752 mmHg 91%
    08:00 +14°C° 0 mm 4 mps 752 mmHg 86%
    09:00 +15°C° 0 mm 4 mps 752 mmHg 80%
    10:00 +18°C° 0 mm 4 mps 752 mmHg 74%
    11:00 +18°C° 0.1 mm 4 mps 752 mmHg 76%
    12:00 +18°C° 0.1 mm 4 mps 751 mmHg 78%
    13:00 +18°C° 0.1 mm 4 mps 751 mmHg 79%
    14:00 +17°C° 0.2 mm 4 mps 751 mmHg 82%
    15:00 +17°C° 0.2 mm 4 mps 750 mmHg 85%
    16:00 +17°C° 0.2 mm 4 mps 750 mmHg 87%
    17:00 +15°C° 0.2 mm 4 mps 750 mmHg 89%
    18:00 +15°C° 0.2 mm 4 mps 750 mmHg 91%
    19:00 +15°C° 0.2 mm 4 mps 750 mmHg 93%
    20:00 +14°C° 0.4 mm 4 mps 750 mmHg 94%
    21:00 +14°C° 0.4 mm 3 mps 750 mmHg 94%
    22:00 +14°C° 0.4 mm 3 mps 750 mmHg 95%
    23:00 +13°C° 0.5 mm 3 mps 750 mmHg 95%

    28 September, Saturday

    Time Temperature Precipitation Wind Pressure Humidity
    00:00 +13°C° 0.5 mm 3 mps 750 mmHg 96%
    01:00 +13°C° 0.5 mm 4 mps 750 mmHg 96%
    02:00 +12°C° 0.4 mm 4 mps 750 mmHg 96%
    03:00 +12°C° 0.4 mm 4 mps 750 mmHg 95%
    04:00 +10°C° 0.4 mm 5 mps 750 mmHg 95%
    05:00 +10°C° 0 mm 5 mps 750 mmHg 94%
    06:00 +10°C° 0 mm 5 mps 750 mmHg 93%
    07:00 +10°C° 0 mm 5 mps 750 mmHg 92%
    08:00 +13°C° 0.1 mm 5 mps 750 mmHg 85%
    09:00 +14°C° 0.1 mm 6 mps 751 mmHg 78%
    10:00 +16°C° 0.1 mm 6 mps 751 mmHg 71%
    11:00 +16°C° 0.3 mm 6 mps 751 mmHg 69%
    12:00 +16°C° 0.3 mm 6 mps 751 mmHg 67%
    13:00 +17°C° 0.3 mm 6 mps 751 mmHg 65%
    14:00 +16°C° 0.2 mm 5 mps 751 mmHg 67%
    15:00 +16°C° 0.2 mm 5 mps 751 mmHg 70%
    16:00 +17°C° 0.2 mm 4 mps 751 mmHg 72%
    17:00 +15°C° 0.1 mm 4 mps 751 mmHg 77%
    18:00 +13°C° 0.1 mm 4 mps 751 mmHg 81%
    19:00 +12°C° 0.1 mm 3 mps 751 mmHg 86%
    20:00 +12°C° 0 mm 3 mps 751 mmHg 87%
    21:00 +12°C° 0 mm 3 mps 751 mmHg 89%
    22:00 +11°C° 0 mm 4 mps 751 mmHg 90%
    23:00 +11°C° 0 mm 4 mps 751 mmHg 90%
    Show more